Location: Fontevrault
(47.1823°N, 0.0493°E)
Time: 16:03:05
(UTC+00:00)

Cosmos 2263 Rocket - Visible Passes

Search period start: 24 October 2021 00:00
Search period end: 03 November 2021 00:00
Orbit: 825 x 847 km, 71.0° (Epoch: 23 October)

Date Brightness Start Highest point End Pass type
(mag) Time Alt. Az. Time Alt. Az. Time Alt. Az.
24 Oct 4.3 18:34:03 10° NW 18:38:40 27° WSW 18:43:15 10° SSW visible
25 Oct 4.2 18:17:10 10° NW 18:21:55 29° WSW 18:26:39 10° SSW visible
26 Oct 4.1 18:00:17 10° NW 18:05:10 32° WSW 18:10:01 10° SSW visible
27 Oct 4.0 17:43:25 10° NW 17:48:24 35° WSW 17:53:22 10° S visible
28 Oct 3.9 17:26:34 10° NW 17:31:39 37° WSW 17:36:43 10° S visible
29 Oct 3.8 17:09:43 10° NW 17:14:54 40° WSW 17:20:02 10° S visible
31 Oct 4.2 06:02:36 10° S 06:07:38 35° ESE 06:12:39 10° NE visible
01 Nov 4.2 05:45:58 10° SSE 05:50:53 32° ESE 05:55:47 10° NE visible
02 Nov 4.3 05:29:20 10° SSE 05:34:07 30° ESE 05:38:55 10° NE visible
